This is the latest recevied weather packets stored in our database for station/object KD7CIH. If no packets are shown the sender has not sent any weather packets the latest 10 day(s).
| Time | Temp. | Humidity | Pressure | Rain* | Wind** | Luminosity | Snow |
|---|---|---|---|---|---|---|---|
| 1777782875 | 11.67° C | 27% | 1013.3 hPa | 0 mm | - | - | - |
| 1777782567 | 11.67° C | 26% | 1013.3 hPa | 0 mm | - | - | - |
| 1777782135 | 11.11° C | 26% | 1013.3 hPa | 0 mm | - | - | - |
| 1777781832 | 11.67° C | 25% | 1013.3 hPa | 0 mm | - | - | - |
| 1777781534 | 11.67° C | 26% | 1013.3 hPa | 0 mm | - | - | - |
| 1777781232 | 11.67° C | 26% | 1013.3 hPa | 0 mm | - | - | - |
| 1777780934 | 11.67° C | 26% | 1013 hPa | 0 mm | - | - | - |
| 1777780630 | 11.11° C | 26% | 1013.1 hPa | 0 mm | - | - | - |
| 1777780330 | 11.11° C | 27% | 1013.1 hPa | 0 mm | - | - | - |
| 1777780026 | 11.11° C | 27% | 1012.9 hPa | 0 mm | - | - | - |
| 1777779726 | 11.67° C | 28% | 1012.9 hPa | 0 mm | - | - | - |
| 1777779426 | 11.67° C | 28% | 1012.8 hPa | 0 mm | - | - | - |
| 1777779129 | 11.67° C | 26% | 1012.8 hPa | 0 mm | - | - | - |
| 1777778826 | 11.67° C | 25% | 1012.7 hPa | 0 mm | - | - | - |
| 1777778526 | 11.67° C | 27% | 1012.7 hPa | 0 mm | - | - | - |
| 1777778225 | 11.67° C | 29% | 1012.5 hPa | 0 mm | - | - | - |
| 1777778054 | 11.67° C | 29% | 1012.5 hPa | 0 mm | - | - | - |
| 1777777625 | 12.78° C | 27% | 1012.5 hPa | 0 mm | - | - | - |
| 1777777325 | 13.33° C | 23% | 1012.4 hPa | 0 mm | - | - | - |
| 1777777028 | 13.33° C | 23% | 1012.4 hPa | 0 mm | - | - | - |
| 1777776727 | 13.33° C | 23% | 1012.4 hPa | 0 mm | - | - | - |
| 1777776555 | 13.33° C | 24% | 1012.3 hPa | 0 mm | - | - | - |
| 1777776253 | 13.33° C | 24% | 1012.2 hPa | 0 mm | - | - | - |
| 1777775828 | 13.33° C | 24% | 1012.2 hPa | 0 mm | - | - | - |
| 1777775525 | 13.33° C | 24% | 1012 hPa | 0 mm | - | - | - |
* Rain latest hour (hover to see other rain measurements)
** Current wind speed in m/s (hover to see current wind gust speed)